Hourly Weather Roundup
Issued by NWS Central Illinois

Home | Current Version | Previous Version | Graphics & Text | Print | Product List | Glossary On
Versions: 1 2 3 4 5 6 7 8 9 10 11 12 13 14 15 16 17 18 19 20 21 22 23 24 25 26 27 28 29 30 31 32 33 34 35 36 37 38 39 40 41 42 43 44 45 46 47 48 49 50
000
NZUS43 KILX 010810
HWRILX

AREA WEATHER ROUNDUP
NATIONAL WEATHER SERVICE, LINCOLN IL
300 AM CDT TUE SEP 01 2015


CITY           SKY/WX    TMP DP  RH WIND       PRES   REMARKS
BLOOMINGTON    PTCLDY    73  72  97 SW7       30.07S
CHAMPAIGN      PTCLDY    73  68  84 S6        30.07F
DANVILLE       MOCLDY    68  67  98 S3        30.06S FOG
DECATUR        MOCLDY    74  69  85 SW7       30.07S
EFFINGHAM      PTCLDY    71  67  86 CALM      30.09S
FLORA          CLEAR     67  66  95 CALM      30.09S
GALESBURG      CLEAR     71  69  93 S5        30.02S
JACKSONVILLE   CLEAR     76  73  88 S6        30.04S
LACON          CLEAR     73  70  91 S5        30.02S
LAWRENCEVILLE  CLEAR     68  66  93 CALM      30.09S
LITCHFIELD     CLEAR     70  68  93 S5        30.07S
$$


CITY           SKY/WX    TMP DP  RH WIND       PRES   REMARKS
LINCOLN        PTCLDY    73  69  89 CALM      30.05R
MACOMB         MOCLDY    73  71  94 S3        30.04S
MATTOON        PTCLDY    72  67  84 S6        30.07S
MT CARMEL AP   CLEAR     68  64  88 CALM      30.09S
OLNEY-NOBLE AP CLEAR     66  66 100 CALM      30.09S
PARIS          CLEAR     68  67  96 CALM      30.09S
PEORIA         CLEAR     75  70  84 SW5       30.03F
PONTIAC        PTCLDY    73  72  97 S5        30.05F
RANTOUL        CLEAR     70  69  94 CALM      30.07F
ROBINSON       PTCLDY    66  64  96 CALM      30.10S
SPRINGFIELD    CLEAR     74  71  91 S5        30.05S
TAYLORVILLE    CLEAR     70  68  94 S6        30.06S
$$

...REGIONAL REPORTS...


CITY           SKY/WX    TMP DP  RH WIND       PRES   REMARKS
CHICAGO O`HARE PTCLDY    71  68  90 S3        30.03S
KANKAKEE       MOCLDY    68  67  96 CALM      30.06F FOG
MOLINE         CLEAR     74  70  87 S5        29.99F
MOUNT STERLING CLEAR     71  70  95 S3        30.03S
MOUNT VERNON   MOCLDY    66  63  88 CALM      30.09S
PITTSFIELD     CLEAR     75  71  87 S3        30.05S
QUINCY         CLEAR     74  71  91 S6        30.03S
ROCKFORD       CLEAR     70  67  90 CALM      30.03F FOG
$$


CITY           SKY/WX    TMP DP  RH WIND       PRES   REMARKS
BURLINGTON     CLEAR     73  72  96 S6        30.00F
CEDAR RAPIDS   PTCLDY    70  70 100 S5        29.98S FOG
DES MOINES     CLEAR     73  67  81 S9        29.95S
KIRKSVILLE     CLEAR     71  67  87 S6        30.02F
OTTUMWA        CLEAR     70  68  93 S7        29.97F
ST LOUIS       CLEAR     78  70  76 S3        30.06S HX  80
$$


CITY           SKY/WX    TMP DP  RH WIND       PRES   REMARKS
TERRE HAUTE    PTCLDY    66  64  93 CALM      30.09S
EVANSVILLE     CLEAR     70  67  90 CALM      30.10S
INDIANAPOLIS   MOCLDY    72  67  84 CALM      30.09S
LAFAYETTE      MOCLDY    68  66  93 CALM      30.08S
MADISON        CLEAR     69  67  93 CALM      30.00F FOG
MILWAUKEE      CLEAR     68  65  90 S5        30.02F
$$




USA.gov is the U.S. government's official web portal to all federal, state and local government web resources and services.